TimeCEST,TemperatureF,Dew PointF,Humidity,Sea Level PressureIn,VisibilityMPH,Wind Direction,Wind SpeedMPH,Gust SpeedMPH,PrecipitationIn,Events,Conditions,WindDirDegrees,DateUTC
12:00 AM,41.0,35.6,81,30.24,-9999.0,SW,5.8,-,N/A,,Clear,230,2013-04-13 22:00:00
12:30 AM,41.0,35.6,81,30.24,-9999.0,SSW,3.5,-,N/A,,Clear,210,2013-04-13 22:30:00
1:00 AM,39.2,35.6,87,30.27,-9999.0,SSW,6.9,-,N/A,,Clear,200,2013-04-13 23:00:00
1:30 AM,39.2,35.6,87,30.27,-9999.0,SSW,8.1,-,N/A,,Clear,210,2013-04-13 23:30:00
2:00 AM,39,35,80,30.32,25,SSW,6.7,,,,Partly Cloudy,210,2013-04-14 00:00:00
2:00 AM,39.2,35.6,87,30.27,-9999.0,SSW,9.2,-,N/A,,Clear,200,2013-04-14 00:00:00
2:30 AM,41.0,35.6,81,30.27,-9999.0,SSW,9.2,-,N/A,,Clear,210,2013-04-14 00:30:00
3:00 AM,39.2,35.6,87,30.27,-9999.0,SSW,9.2,-,N/A,,Clear,210,2013-04-14 01:00:00
3:30 AM,39.2,35.6,87,30.27,-9999.0,SSW,10.4,-,N/A,,Clear,210,2013-04-14 01:30:00
4:00 AM,39.2,35.6,87,30.27,-9999.0,SW,10.4,-,N/A,,Clear,220,2013-04-14 02:00:00
4:30 AM,37.4,33.8,87,30.30,-9999.0,SW,9.2,-,N/A,,Clear,230,2013-04-14 02:30:00
5:00 AM,35.6,33.8,93,30.27,-9999.0,SW,8.1,-,N/A,,Clear,220,2013-04-14 03:00:00
5:30 AM,37.4,33.8,87,30.30,-9999.0,SW,9.2,-,N/A,,Clear,220,2013-04-14 03:30:00
6:00 AM,37.4,33.8,87,30.30,-9999.0,SSW,6.9,-,N/A,,Clear,210,2013-04-14 04:00:00
6:30 AM,37.4,35.6,93,30.30,-9999.0,SSW,12.7,-,N/A,,Clear,210,2013-04-14 04:30:00
7:00 AM,41.0,37.4,87,30.30,-9999.0,SW,8.1,-,N/A,,Clear,220,2013-04-14 05:00:00
7:30 AM,44.6,39.2,81,30.33,-9999.0,SW,8.1,-,N/A,,Clear,230,2013-04-14 05:30:00
8:00 AM,46,39,69,30.36,25,WSW,8.9,,,,Partly Cloudy,240,2013-04-14 06:00:00
8:00 AM,46.4,39.2,76,30.33,-9999.0,SW,9.2,-,N/A,,Clear,230,2013-04-14 06:00:00
8:30 AM,46.4,39.2,76,30.33,-9999.0,SW,10.4,-,N/A,,Clear,230,2013-04-14 06:30:00
9:00 AM,48.2,39.2,71,30.33,-9999.0,SW,9.2,-,N/A,,Clear,230,2013-04-14 07:00:00
9:30 AM,50.0,39.2,66,30.33,-9999.0,SW,8.1,-,N/A,,Clear,230,2013-04-14 07:30:00
10:00 AM,51.8,39.2,62,30.33,-9999.0,SW,6.9,-,N/A,,Clear,220,2013-04-14 08:00:00
10:30 AM,53.6,39.2,58,30.33,-9999.0,SW,6.9,-,N/A,,Clear,220,2013-04-14 08:30:00
11:00 AM,55.4,39.2,54,30.36,-9999.0,SW,6.9,-,N/A,,Clear,220,2013-04-14 09:00:00
11:30 AM,55.4,39.2,54,30.36,-9999.0,SW,10.4,-,N/A,,Clear,230,2013-04-14 09:30:00
12:00 PM,57.2,37.4,48,30.36,-9999.0,West,11.5,-,N/A,,Clear,260,2013-04-14 10:00:00
12:30 PM,57.2,37.4,48,30.36,-9999.0,WSW,9.2,-,N/A,,Clear,240,2013-04-14 10:30:00
1:00 PM,57.2,35.6,44,30.36,-9999.0,West,9.2,-,N/A,,Clear,260,2013-04-14 11:00:00
1:30 PM,59.0,35.6,42,30.33,-9999.0,WSW,8.1,-,N/A,,Clear,250,2013-04-14 11:30:00
2:00 PM,59,35,28,30.35,19,WNW,6.7,,,,Mostly Cloudy,290,2013-04-14 12:00:00
2:00 PM,59.0,35.6,42,30.33,-9999.0,Variable,5.8,-,N/A,,Clear,0,2013-04-14 12:00:00
2:30 PM,59.0,35.6,42,30.33,-9999.0,Variable,3.5,-,N/A,,Clear,0,2013-04-14 12:30:00
3:00 PM,60.8,37.4,42,30.33,-9999.0,SSW,3.5,-,N/A,,Clear,200,2013-04-14 13:00:00
3:30 PM,60.8,35.6,39,30.33,-9999.0,Variable,3.5,-,N/A,,Clear,0,2013-04-14 13:30:00
4:00 PM,60.8,37.4,42,30.33,-9999.0,Variable,3.5,-,N/A,,Clear,0,2013-04-14 14:00:00
4:30 PM,60.8,39.2,45,30.33,-9999.0,West,3.5,-,N/A,,Clear,270,2013-04-14 14:30:00
5:00 PM,62.6,37.4,39,30.33,-9999.0,Variable,2.3,-,N/A,,Clear,0,2013-04-14 15:00:00
5:30 PM,62.6,37.4,39,30.33,-9999.0,Variable,2.3,-,N/A,,Clear,0,2013-04-14 15:30:00
6:00 PM,62.6,37.4,39,30.30,-9999.0,Variable,4.6,-,N/A,,Clear,0,2013-04-14 16:00:00
6:30 PM,60.8,37.4,42,30.30,-9999.0,South,4.6,-,N/A,,Clear,170,2013-04-14 16:30:00
7:00 PM,59.0,39.2,48,30.30,-9999.0,SSE,4.6,-,N/A,,Clear,160,2013-04-14 17:00:00
7:30 PM,57.2,37.4,48,30.30,-9999.0,East,3.5,-,N/A,,Clear,100,2013-04-14 17:30:00
8:00 PM,56,37,37,30.32,31,SE,6.7,,,,Scattered Clouds,130,2013-04-14 18:00:00
8:00 PM,55.4,37.4,51,30.30,-9999.0,ESE,4.6,-,N/A,,Clear,110,2013-04-14 18:00:00
8:30 PM,55.4,37.4,51,30.30,-9999.0,ESE,4.6,-,N/A,,Clear,120,2013-04-14 18:30:00
9:00 PM,53.6,37.4,54,30.30,-9999.0,East,6.9,-,N/A,,Clear,100,2013-04-14 19:00:00
9:30 PM,51.8,37.4,58,30.30,-9999.0,East,5.8,-,N/A,,Clear,100,2013-04-14 19:30:00
10:00 PM,50.0,39.2,66,30.33,-9999.0,ESE,5.8,-,N/A,,Clear,120,2013-04-14 20:00:00
10:30 PM,48.2,39.2,71,30.30,-9999.0,ESE,5.8,-,N/A,,Clear,120,2013-04-14 20:30:00
11:00 PM,51.8,39.2,62,30.30,-9999.0,SE,5.8,-,N/A,,Clear,140,2013-04-14 21:00:00
11:30 PM,51.8,39.2,62,30.30,-9999.0,SSE,5.8,-,N/A,,Clear,150,2013-04-14 21:30:00